Location: Berkeley
(37.8716°N, 122.2727°W)
Time: 18:11:19
(UTC-07:00)

Tiangong 2 - Visible Passes

Search period start: 18 June 2018 00:00
Search period end: 28 June 2018 00:00
Orbit: 292 x 297 km, 42.8° (Epoch: 18 June)

Date Brightness Start Highest point End Pass type
(mag) Time Alt. Az. Time Alt. Az. Time Alt. Az.
25 Jun 2.8 04:41:14 13° S 04:42:26 16° SE 04:44:08 10° ESE visible
26 Jun 1.6 04:46:44 18° SSW 04:48:10 33° SSE 04:50:31 10° E visible
27 Jun 0.5 04:52:06 17° WSW 04:53:54 75° SSE 04:56:27 10° ENE visible
